Wind_Speed
96 98 100 101 102 104 107 110 112 111 109 108 107 105 103 101 99 96 95 94 93 92 91 91 90 90 90 90 90 90 91 91 92 92 92 93 95 97 98 100 101 102 103 103 101 99 97 96 93 92 92 90 89 88 84 79 74 71 69 66 66 66 66 65 63 67 81 88 87 90 93 96 102 108 112 117 123 129 133 138 142 145 147 148 147
100 101 102 104 106 109 111 112 111 109 108 106 105 103 101 98 96 94 92 91 90 90 89 89 89 89 89 89 90 90 90 91 90 90 91 92 94 96 97 100 101 101 102 101 99 97 95 93 91 89 89 87 86 85 81 76 71 67 67 64 63 64 63 63 63 67 78 87 87 89 92 92 95 102 109 115 121 126 129 134 139 143 145 146 147
103 104 106 108 110 112 111 110 108 107 106 105 103 101 98 96 94 92 90 90 89 88 88 88 88 88 88 89 89 90 90 90 90 90 90 91 93 94 96 100 101 100 101 99 97 95 93 90 88 86 85 84 83 81 77 73 69 65 64 62 60 61 60 60 64 68 77 85 85 86 89 88 89 97 107 113 118 124 127 130 136 140 142 145 146
106 107 109 111 111 111 109 107 106 106 104 103 101 99 97 95 93 91 90 89 88 87 87 87 88 88 89 89 89 89 90 89 89 89 90 90 91 92 95 99 100 100 100 97 94 94 90 85 84 83 80 79 77 76 73 69 66 63 61 60 58 58 58 59 64 69 75 81 83 84 86 84 85 92 102 110 115 121 124 128 134 137 139 143 145
109 110 111 111 110 108 107 106 105 103 102 101 100 98 96 94 92 91 90 89 87 87 87 87 88 89 89 89 89 89 89 89 89 88 89 90 90 91 95 98 99 100 99 96 92 91 87 81 81 79 75 74 72 71 68 65 63 61 59 58 55 55 57 58 63 69 73 78 81 83 83 82 83 87 96 106 114 118 123 127 132 134 136 140 143
109 110 110 109 108 107 105 104 102 101 100 99 98 97 94 92 91 90 89 87 86 86 86 87 89 90 90 90 90 89 90 89 89 88 88 89 89 90 94 97 99 100 98 94 91 89 84 78 77 75 70 69 68 67 64 62 60 59 57 55 54 54 56 58 62 67 71 76 79 80 80 80 81 83 90 103 112 116 121 126 130 132 135 139 142
108 108 108 108 108 106 104 101 99 98 97 97 96 95 92 91 90 89 87 86 86 86 87 88 90 91 91 90 90 90 90 90 89 88 88 87 87 89 93 96 98 99 96 92 88 87 84 77 73 71 66 65 65 63 61 59 57 57 55 53 52 53 55 57 61 65 69 74 76 77 77 77 78 81 88 101 110 114 119 124 128 131 134 138 142
107 107 107 107 106 104 102 99 97 96 95 95 94 92 91 90 89 87 86 86 86 87 88 89 90 91 91 90 90 91 92 91 90 89 88 86 86 88 92 95 97 97 94 89 84 82 82 78 71 67 63 62 62 61 59 57 55 54 53 52 52 53 55 57 60 64 68 71 73 74 75 75 77 81 87 98 107 111 117 123 126 130 134 138 142
106 106 106 105 104 102 99 97 95 94 93 92 91 90 90 89 88 87 86 86 87 87 88 89 90 90 90 91 92 93 93 91 90 89 87 86 85 87 91 94 95 95 93 87 80 77 78 76 70 64 61 61 60 59 57 55 53 52 51 51 51 53 55 57 60 63 66 69 71 72 73 73 75 79 85 95 104 110 116 121 124 129 134 137 140
105 105 104 104 103 100 97 96 94 93 91 90 89 89 89 88 87 87 86 86 87 88 89 90 90 90 90 92 93 94 93 92 90 89 87 86 86 87 90 92 92 92 92 86 77 74 75 73 67 62 59 59 58 57 56 54 51 50 50 50 51 52 55 57 60 62 64 67 69 70 70 71 74 78 84 94 104 109 114 119 122 128 133 135 139
103 103 102 102 101 98 96 94 93 91 90 89 88 88 88 87 87 87 87 87 88 90 90 90 90 91 91 93 93 93 93 92 90 89 88 88 88 88 88 90 88 88 90 85 74 70 72 69 64 61 59 57 55 53 54 52 50 48 48 49 51 52 55 57 59 62 63 66 67 68 69 71 75 79 84 94 103 108 111 116 121 126 131 133 137
102 101 101 100 99 97 95 93 91 90 89 87 87 87 88 87 87 87 88 89 90 90 90 90 90 91 92 93 93 92 92 92 90 90 90 89 89 89 88 87 84 84 87 83 72 68 68 66 62 60 58 56 52 50 50 51 49 47 48 50 51 52 55 57 59 61 63 65 67 67 69 73 76 80 85 93 102 106 110 115 119 124 128 132 135
100 99 99 98 97 95 93 91 90 89 88 87 88 88 88 88 88 88 89 90 89 89 89 90 91 93 94 93 92 91 92 92 92 91 91 91 90 89 87 84 81 82 85 81 70 66 65 62 60 59 57 55 51 46 47 49 50 47 48 50 52 52 55 57 59 61 63 65 66 66 69 74 78 82 87 94 101 106 109 114 118 121 125 129 133
99 98 97 96 95 93 91 90 89 88 88 88 89 89 89 89 89 90 90 89 88 88 90 92 94 95 94 92 91 91 92 93 93 93 92 92 91 89 85 80 77 79 83 79 69 66 63 58 57 58 57 54 49 44 44 48 49 48 48 50 51 52 54 56 58 60 62 64 66 67 71 76 79 83 88 93 100 105 110 113 116 118 121 126 130
98 97 96 95 93 92 90 89 89 89 89 90 90 90 90 90 90 90 89 88 88 90 92 94 95 94 93 91 91 93 94 95 95 94 93 92 92 89 83 77 74 76 80 77 68 65 61 56 54 56 56 54 47 42 43 46 49 49 47 49 50 50 52 55 57 59 62 64 66 69 73 77 81 84 88 93 99 104 108 110 112 113 117 123 128
98 97 96 95 93 91 91 90 90 90 91 92 92 91 91 91 91 90 89 89 90 92 93 94 94 92 91 91 92 94 96 97 96 96 95 94 92 88 81 74 71 73 77 74 68 64 60 54 52 53 54 53 46 41 42 45 48 48 46 47 48 48 50 54 55 58 61 64 66 70 73 78 81 84 87 92 96 100 103 106 108 110 115 121 127
97 97 96 95 94 93 93 93 92 92 93 93 93 93 92 92 91 90 90 91 92 93 93 93 92 92 92 92 93 95 97 98 97 97 96 95 92 86 77 70 67 70 73 72 67 62 58 52 50 50 53 51 45 41 42 43 46 46 44 44 46 47 50 53 55 58 61 64 66 69 73 78 81 83 85 89 92 96 100 103 106 109 114 119 125
98 97 97 96 95 95 95 95 94 94 94 94 94 93 93 92 92 91 92 93 93 92 92 92 92 92 93 94 94 95 97 98 98 97 97 96 93 84 73 66 64 66 69 70 66 60 55 51 47 47 51 50 44 41 41 42 44 43 42 43 45 48 51 53 55 58 62 64 66 69 74 78 80 81 84 87 89 93 98 101 104 109 113 118 123
99 98 97 96 96 97 96 96 95 95 96 95 94 94 94 94 94 94 94 94 93 92 91 92 92 93 94 95 94 95 97 99 99 98 97 97 92 81 70 63 61 62 65 67 65 58 53 50 46 45 49 48 43 41 41 41 42 41 41 43 46 50 51 53 56 59 62 64 66 69 74 77 78 79 83 86 88 92 96 100 103 107 111 116 121
99 98 98 98 98 98 97 97 97 97 97 97 98 98 98 98 98 96 95 93 92 91 91 91 92 93 94 94 94 95 98 99 98 98 97 97 90 77 67 61 59 59 61 64 64 57 51 49 45 43 46 47 42 40 40 40 40 39 41 44 47 49 50 52 56 59 61 63 65 68 72 74 75 78 81 83 87 92 96 99 102 106 110 115 121
100 100 100 100 100 100 100 99 99 100 101 102 103 103 102 100 99 97 95 93 92 91 91 91 93 94 93 93 93 95 97 98 98 98 98 97 88 75 65 61 58 57 57 61 63 57 49 48 45 42 44 45 41 39 39 38 38 39 41 44 45 46 48 51 56 58 59 61 64 68 70 71 72 75 79 82 87 92 95 98 101 105 110 116 122
102 102 102 103 103 103 103 102 103 104 105 105 105 104 102 101 99 97 94 93 92 92 91 92 93 93 93 92 92 95 98 98 98 98 98 96 87 75 66 62 58 56 54 56 61 58 50 46 45 43 43 42 40 38 38 37 37 39 40 41 43 45 48 52 55 56 57 59 63 66 68 68 70 74 78 82 87 91 95 98 101 106 111 117 123
105 105 106 106 106 107 106 106 107 107 106 106 105 105 104 102 99 96 93 92 92 92 92 92 92 92 92 92 92 95 98 98 98 98 97 93 85 76 70 65 60 56 53 53 56 58 52 45 43 43 42 40 38 37 37 36 37 37 38 40 42 45 48 51 53 53 54 58 62 64 65 67 70 74 78 83 88 92 95 99 102 106 112 117 121
108 109 109 109 110 111 110 110 109 108 108 107 107 106 105 102 99 95 92 92 92 92 92 92 91 90 90 91 92 94 97 97 97 98 96 91 84 76 72 68 62 56 53 51 52 54 53 46 41 42 41 39 37 36 35 35 35 35 37 39 42 45 48 50 51 52 53 57 61 63 63 66 70 74 79 84 88 92 96 99 102 107 112 116 119
110 110 110 111 112 112 111 110 109 108 108 108 107 106 104 101 98 95 93 92 92 92 92 91 90 89 89 90 91 93 95 95 95 97 96 90 84 77 73 70 66 58 53 50 48 50 51 46 40 40 40 37 36 35 34 33 33 34 36 39 42 45 47 49 50 52 54 59 62 63 64 67 70 74 80 85 88 91 95 97 101 107 111 115 118
111 110 110 111 112 112 110 109 108 108 108 108 107 105 103 100 97 95 93 93 92 92 91 90 90 89 88 89 90 91 93 93 94 96 95 89 82 77 72 70 68 62 56 51 47 47 49 45 40 39 38 36 35 34 33 32 32 34 36 39 42 45 47 48 51 53 57 61 64 65 67 69 72 76 80 84 87 90 93 97 101 106 111 114 117
110 110 111 111 111 111 109 108 107 107 107 107 106 104 102 100 97 94 94 94 94 93 92 91 90 89 87 87 88 90 92 92 92 93 91 85 79 74 70 67 67 64 60 54 48 45 45 43 40 38 37 35 34 34 32 32 32 34 36 39 41 44 46 49 52 55 59 62 65 68 70 72 75 77 80 83 86 90 93 97 101 106 111 115 117
108 109 110 111 111 109 108 106 106 106 106 106 105 104 102 99 96 95 95 96 95 94 93 92 90 88 86 85 86 88 91 92 91 90 86 79 73 70 67 64 63 61 59 55 50 44 41 40 39 37 35 34 34 33 32 31 31 33 36 39 42 44 47 50 54 57 60 64 67 69 71 73 75 78 80 83 87 90 93 97 102 107 112 116 118
108 109 110 110 110 108 106 105 105 105 105 104 103 103 101 99 96 96 96 95 95 93 92 90 88 86 85 84 84 85 88 90 90 88 83 75 68 65 62 59 58 57 55 53 50 44 39 38 38 37 35 34 33 33 31 30 31 33 36 39 43 45 48 51 55 59 62 64 67 69 70 71 74 77 81 84 88 91 94 98 103 109 113 116 119
108 108 109 109 109 107 105 104 105 104 103 103 103 102 101 99 99 99 98 96 94 92 90 88 86 84 84 83 81 81 84 87 87 85 80 72 67 64 60 56 55 53 49 48 48 44 38 36 37 35 34 34 33 32 31 30 31 33 37 40 43 46 49 52 56 59 62 64 65 67 68 71 75 78 82 86 89 92 96 100 105 111 114 117 119
107 108 108 109 108 106 104 104 104 103 102 102 102 102 101 100 101 102 102 100 97 94 91 88 86 84 83 82 80 79 82 86 85 81 76 70 66 63 58 55 55 52 46 44 45 42 37 35 36 34 33 33 32 31 31 30 31 34 38 41 43 46 49 53 57 60 62 63 64 65 68 72 76 79 83 87 91 94 98 102 107 112 115 117 120
106 107 107 108 108 106 104 103 102 102 101 102 102 102 101 101 102 103 103 102 101 98 94 91 88 86 84 82 80 79 82 84 83 79 73 68 66 63 57 53 53 53 47 41 41 40 36 34 35 34 33 33 32 31 31 31 32 35 39 42 44 47 50 54 57 60 61 62 63 65 68 73 77 80 84 88 92 95 99 104 108 112 115 118 120
105 105 106 106 107 105 103 102 101 100 101 102 103 103 102 103 104 104 103 101 99 97 95 93 91 88 86 83 80 79 81 83 81 76 71 67 66 64 59 52 50 51 48 41 38 37 35 34 34 33 33 33 32 31 32 32 34 37 40 43 46 48 51 54 57 60 61 62 63 65 70 75 79 82 85 89 92 96 101 105 110 113 116 118 121
102 102 103 104 104 104 103 102 101 101 103 104 104 104 105 106 107 106 104 101 97 94 92 91 89 87 85 83 81 80 81 82 80 75 70 66 64 63 59 51 46 47 46 42 38 35 34 33 33 33 33 33 32 32 32 34 35 38 42 45 47 50 52 55 58 60 61 62 64 68 72 76 80 83 86 90 93 97 102 107 111 114 116 118 120
99 99 99 100 101 102 103 103 103 104 105 105 105 106 107 109 109 107 105 103 100 97 95 91 89 87 85 83 82 81 81 81 80 75 68 63 62 61 58 51 45 43 43 41 38 35 33 32 33 33 32 32 32 32 33 35 36 39 43 46 49 51 53 56 59 61 62 64 66 70 74 77 81 84 87 91 95 99 104 109 113 115 116 118 119
95 96 97 98 99 101 103 104 106 107 107 107 107 108 110 110 109 107 106 104 102 100 99 96 92 89 86 83 81 80 79 78 76 73 66 60 59 60 59 53 47 43 41 39 37 35 33 32 32 32 32 32 32 33 34 35 37 40 43 47 50 52 54 57 60 62 64 66 68 72 76 79 82 85 88 92 96 101 106 110 114 116 116 115 116
94 96 97 99 100 101 104 106 108 109 109 110 110 111 111 110 108 107 105 103 102 101 100 99 96 92 87 83 80 79 78 76 73 70 65 59 55 55 56 53 47 43 41 39 37 34 33 32 32 32 32 32 32 34 35 36 38 41 44 48 51 53 56 58 61 64 66 68 70 74 77 81 84 87 90 94 99 103 107 112 115 116 115 112 110
96 98 99 100 102 104 106 108 109 110 111 112 112 112 111 109 108 107 105 103 101 101 100 99 97 94 90 85 81 78 77 76 72 68 64 59 54 52 51 49 46 42 40 38 36 35 33 32 32 32 32 32 33 34 36 37 38 41 45 49 52 54 57 60 62 65 68 70 72 75 78 82 86 89 92 96 100 104 109 114 118 117 114 109 107
99 101 102 103 105 107 108 110 111 112 113 113 113 112 111 109 108 106 104 102 101 100 99 98 96 93 90 86 81 78 75 74 71 68 64 61 57 52 49 47 45 42 40 38 36 35 33 32 32 32 32 32 34 35 36 38 39 42 46 50 53 55 59 61 64 66 69 71 73 76 80 84 88 91 93 97 101 105 110 115 120 120 114 108 106
103 105 106 106 108 109 110 112 112 112 113 113 112 111 110 109 107 106 104 102 101 100 98 96 93 90 87 84 81 78 75 72 69 66 64 61 58 53 48 45 43 42 40 38 36 35 33 33 33 32 32 33 35 36 37 39 41 44 48 51 54 57 60 62 65 68 70 72 75 78 82 86 89 92 95 98 103 108 113 118 122 123 118 110 106
108 109 109 109 110 111 111 112 112 112 112 112 111 111 110 108 107 105 104 103 101 99 97 94 91 87 84 82 80 77 74 71 67 63 61 59 57 52 47 44 42 40 40 39 37 35 34 33 33 33 33 34 36 38 39 40 42 45 49 52 55 58 61 63 66 69 72 74 77 80 83 87 90 93 96 101 106 111 116 121 125 126 121 113 108
110 110 110 111 112 112 112 111 111 111 111 111 111 110 110 108 107 106 104 103 101 98 95 91 88 84 82 80 78 76 73 69 66 61 57 56 54 50 46 43 40 39 39 39 37 35 34 33 33 33 34 35 37 39 40 41 44 47 50 54 57 59 62 64 67 71 74 76 79 81 84 87 90 93 98 103 108 113 118 122 125 126 123 115 110
110 110 111 112 112 111 111 111 111 111 111 111 111 110 109 108 107 106 105 103 100 96 92 88 84 82 80 78 77 75 71 68 64 59 55 53 52 48 44 42 40 38 39 39 37 35 34 34 34 34 35 36 38 40 41 43 45 49 52 55 58 61 63 66 68 71 74 77 80 83 86 88 91 95 100 105 111 117 120 123 126 127 125 118 113
109 110 111 111 110 110 110 110 110 111 110 111 111 110 109 109 107 106 104 101 97 93 89 85 82 79 78 77 75 73 70 66 62 58 53 51 49 46 43 41 39 37 38 39 38 35 34 34 35 35 36 37 39 41 43 44 47 50 54 57 59 62 64 67 69 72 74 78 81 85 89 92 95 99 103 108 114 120 122 123 126 128 127 122 117
108 109 109 109 109 109 109 110 110 110 110 110 110 110 109 108 106 104 101 98 95 90 86 82 80 78 76 75 73 71 68 65 60 56 52 50 48 45 42 40 38 37 37 38 38 36 34 35 35 36 37 39 41 43 44 46 48 52 55 58 61 63 65 67 70 72 75 79 84 88 92 96 100 104 109 113 118 122 123 123 125 128 128 126 122
107 107 107 107 108 108 109 109 109 110 110 110 109 108 107 105 103 101 98 95 91 88 83 80 78 76 74 73 71 69 66 63 58 53 50 49 47 44 41 39 37 36 37 38 37 36 35 35 36 37 38 40 42 44 46 47 50 53 57 60 62 64 66 68 71 73 77 82 86 91 95 100 104 109 114 118 122 123 122 121 123 127 129 128 125
105 105 106 107 107 108 108 109 109 109 109 108 107 106 105 102 100 98 95 92 88 84 81 78 76 74 73 71 69 67 64 61 56 51 49 48 47 43 40 38 36 35 36 37 37 36 35 36 37 38 40 42 44 46 47 49 51 55 58 61 64 66 68 70 73 75 79 84 88 92 97 102 108 114 119 122 124 123 119 118 122 126 129 129 126
104 105 106 106 107 107 107 107 107 107 107 106 105 103 101 99 97 95 92 88 85 81 78 76 74 73 71 69 67 65 62 58 54 50 48 47 45 42 39 37 36 35 35 36 37 37 36 37 38 39 41 43 46 48 49 51 53 56 60 63 66 68 71 73 76 79 82 86 89 94 99 104 111 118 123 126 126 122 117 117 122 126 128 129 127
104 104 105 105 105 105 105 105 105 105 104 102 101 99 97 96 94 91 88 85 81 78 76 74 73 72 70 68 65 62 59 55 52 49 47 46 44 41 38 36 35 34 34 35 37 37 37 38 39 40 42 44 47 49 51 53 55 58 61 65 68 71 73 76 79 82 85 88 91 96 101 107 114 120 126 130 129 122 118 120 123 124 125 128 129
102 103 103 103 102 102 102 102 102 101 100 98 97 96 94 93 90 88 85 81 78 75 74 73 72 71 69 66 63 59 56 53 50 48 46 44 42 39 37 36 35 34 33 35 36 38 38 38 40 41 43 46 48 51 53 55 57 60 63 67 71 73 76 79 82 85 89 92 95 99 104 110 116 122 128 133 131 125 122 123 123 122 122 125 126
99 99 99 99 99 99 99 99 98 97 96 95 94 93 91 89 87 84 81 78 75 73 72 72 71 69 67 64 60 57 54 52 48 46 45 43 40 37 36 35 34 33 33 34 36 38 39 39 40 42 44 47 50 52 55 57 59 61 65 69 73 76 79 82 85 88 92 95 99 103 108 113 118 123 128 133 133 128 125 124 123 120 120 122 121
Wind_Direction
294 294 294 294 295 295 297 298 299 300 300 300 300 300 301 301 300 298 297 296 296 296 297 298 298 298 299 299 300 300 301 300 300 300 300 299 298 296 296 295 295 295 296 296 297 297 296 295 294 292 290 289 288 287 286 284 282 278 274 268 263 257 250 243 238 238 242 239 234 233 230 226 221 217 215 216 218 219 219 220 220 220 219 218 218
293 293 294 294 295 296 297 298 299 299 300 300 300 300 300 300 298 297 296 296 297 298 298 299 299 300 300 301 301 301 301 301 301 301 300 300 299 298 297 296 296 297 297 298 299 298 297 296 294 292 291 290 288 287 286 284 281 278 273 268 263 257 249 243 238 236 239 238 233 232 231 226 222 217 214 215 217 218 219 219 220 220 219 218 218
293 293 294 294 295 296 297 298 299 299 299 299 299 299 299 298 297 296 296 297 298 299 300 300 301 301 302 302 303 302 302 302 302 302 301 300 299 299 298 297 297 298 299 299 300 299 297 296 294 292 290 289 287 286 285 283 281 277 272 267 262 257 248 241 238 235 237 237 234 232 231 227 222 218 214 214 216 217 217 218 219 219 218 218 217
293 293 294 295 296 296 297 298 298 299 299 299 299 299 298 297 297 297 297 298 299 300 301 302 302 303 303 303 304 303 303 303 303 303 302 301 301 300 299 298 299 299 299 300 300 298 296 295 293 291 290 288 287 285 284 282 280 276 272 266 261 256 248 240 237 235 235 235 233 231 231 227 223 219 215 214 215 216 217 217 217 218 217 217 217
293 293 294 295 296 296 297 298 298 299 299 298 298 298 298 297 297 297 298 299 300 301 303 303 304 304 304 304 304 304 304 304 304 304 303 302 302 301 299 299 300 300 300 301 301 298 296 295 293 292 291 289 286 284 283 281 278 275 271 266 260 254 247 240 236 235 233 233 232 231 230 227 223 220 215 213 215 215 216 216 216 216 216 216 216
293 294 295 295 296 296 297 298 298 298 298 297 297 297 297 297 297 298 299 300 302 303 305 305 306 306 305 305 305 305 305 306 306 305 304 303 303 302 301 301 302 302 302 303 302 299 297 296 294 293 292 289 286 284 282 280 277 274 269 264 259 252 246 240 236 234 232 231 231 229 229 226 222 218 214 213 214 215 215 215 215 215 215 214 215
294 294 295 295 296 296 297 298 298 297 297 296 296 296 297 297 299 300 301 302 304 305 307 308 307 307 307 306 307 307 307 307 307 306 305 304 304 303 302 302 303 303 304 305 304 301 298 297 295 294 292 289 286 284 282 279 276 273 268 263 257 251 245 240 236 233 231 230 229 228 227 224 221 216 212 211 213 214 214 215 214 213 213 213 214
294 294 295 295 296 296 297 298 297 296 295 295 295 296 297 299 301 302 304 305 306 308 309 309 309 308 308 308 309 309 308 308 308 307 306 305 305 304 303 304 304 304 306 307 304 301 299 298 296 295 293 289 286 284 282 279 275 271 266 261 255 249 244 239 235 232 230 229 228 226 225 222 219 215 210 210 212 212 213 214 213 212 212 212 212
294 294 295 295 296 297 297 297 297 296 295 295 296 297 299 301 303 305 306 308 309 310 311 310 310 310 310 311 311 310 309 309 309 307 307 306 305 305 304 304 304 305 307 307 304 300 298 297 296 295 293 289 287 284 281 277 274 269 264 259 253 248 243 238 234 232 230 228 226 224 222 220 217 214 209 209 211 211 212 214 213 212 212 211 211
295 295 295 296 296 297 297 297 296 296 296 296 297 299 302 304 306 308 309 310 311 312 312 312 312 312 313 313 313 311 310 310 309 308 307 306 305 304 304 304 305 306 307 306 303 300 297 296 296 295 292 289 287 284 280 276 272 268 263 257 251 246 241 237 234 231 228 227 225 223 220 217 215 212 208 207 210 211 212 213 212 211 212 211 211
295 295 296 296 296 297 297 296 296 296 296 297 299 302 305 308 309 310 311 312 313 314 314 314 314 315 315 315 314 312 311 311 310 309 308 307 305 304 304 305 306 308 307 304 302 300 297 296 296 295 292 289 286 283 279 275 270 265 260 254 249 244 240 236 233 230 227 226 224 221 217 214 212 210 207 206 210 211 211 212 212 211 211 210 210
295 295 296 296 296 296 296 296 296 297 297 299 302 306 308 310 310 311 313 315 315 315 315 315 316 317 317 317 316 314 313 312 311 311 309 308 306 305 305 306 308 310 307 303 302 300 297 297 297 295 292 290 286 281 277 273 268 262 257 252 246 242 239 235 232 229 226 224 222 219 215 213 210 208 206 206 209 210 210 211 212 211 210 209 209
295 295 296 296 296 296 296 296 296 297 299 302 306 309 310 311 312 313 314 315 315 315 316 317 318 319 319 318 317 315 314 313 313 312 310 308 307 306 306 308 311 311 306 302 302 300 298 298 297 295 292 289 284 279 274 271 266 260 254 249 245 240 237 235 231 229 225 223 220 217 214 212 210 208 206 206 208 209 209 210 211 211 209 208 208
295 295 295 295 295 295 296 296 297 299 302 306 309 311 311 312 312 313 314 315 315 317 319 320 320 320 320 319 318 317 315 315 314 312 310 309 307 307 308 310 313 312 306 302 302 300 298 298 297 294 291 287 282 278 273 268 264 259 252 248 244 239 237 234 231 228 225 222 219 215 212 212 210 208 207 206 207 209 209 210 211 210 209 208 207
295 294 294 294 294 295 296 298 299 302 306 309 311 311 312 312 313 314 315 316 318 320 321 321 321 320 320 320 319 318 317 315 315 313 310 309 308 308 310 313 315 312 305 302 301 300 299 299 297 294 290 286 281 276 271 267 263 258 251 247 244 240 236 234 231 228 225 222 218 214 212 212 211 209 208 206 207 209 210 210 211 209 208 207 206
293 294 294 295 297 298 300 301 303 306 308 310 311 311 312 312 313 314 316 318 320 321 321 320 321 321 321 320 320 319 317 316 315 313 311 310 309 309 311 315 315 311 304 301 301 300 300 299 297 293 288 284 281 276 270 265 261 257 251 246 243 239 235 233 230 227 225 222 218 214 212 213 213 211 209 208 208 208 209 210 209 208 207 206 206
296 298 299 300 301 302 302 303 305 307 309 309 310 311 311 312 313 315 317 319 320 320 320 320 321 321 321 321 320 319 318 317 316 314 312 310 308 309 312 316 315 310 304 301 300 300 300 299 296 291 287 283 280 275 270 264 260 256 250 245 241 237 233 231 228 225 224 221 218 214 213 213 214 212 210 209 209 208 208 208 207 206 205 205 205
300 301 301 301 302 302 303 304 306 308 309 309 310 310 311 313 315 317 318 319 319 319 320 321 321 321 321 320 319 319 318 318 316 314 313 310 308 310 314 316 314 308 304 301 299 300 300 298 295 290 285 282 279 274 269 263 258 254 248 242 238 234 230 227 225 224 222 220 217 214 213 214 214 212 210 209 208 207 207 207 206 205 204 203 203
300 301 301 301 301 302 303 304 306 308 308 309 310 311 312 314 316 317 317 318 318 318 320 321 321 321 320 319 319 319 319 319 317 315 313 310 309 311 315 316 312 308 305 301 299 300 301 298 294 288 283 281 278 273 267 262 256 251 245 240 235 231 228 225 223 222 221 219 217 214 214 215 214 212 210 208 207 206 206 205 205 204 203 202 202
300 300 300 300 301 302 303 305 307 308 309 310 311 312 313 314 315 316 316 317 317 318 319 320 320 320 319 319 319 319 319 319 318 316 314 311 309 312 315 315 311 308 306 303 300 301 301 298 293 286 281 279 277 272 266 260 254 248 241 238 234 231 228 224 223 222 220 218 216 214 215 215 213 211 209 208 206 205 204 204 203 202 201 201 201
300 300 300 300 301 303 305 306 308 309 310 311 311 311 312 313 314 314 315 316 317 317 319 319 319 319 318 318 319 319 319 319 318 317 315 311 310 313 315 314 311 309 307 305 302 301 301 297 292 285 280 278 275 270 264 258 252 245 240 237 234 230 227 224 223 222 219 216 215 214 215 215 213 211 209 206 205 204 203 203 202 201 200 200 200
299 299 300 301 302 304 305 307 308 308 308 308 308 309 310 312 313 313 314 315 316 317 318 318 318 318 318 319 319 319 319 319 319 318 316 312 312 315 315 313 311 309 308 306 303 301 300 296 290 285 280 277 274 269 263 256 249 243 239 236 232 228 225 223 222 221 217 215 214 214 214 213 211 210 208 205 204 203 202 201 200 200 199 199 200
299 299 300 302 303 304 305 306 306 306 306 306 307 309 310 311 311 312 314 315 315 316 317 317 317 318 318 319 320 320 320 320 319 318 316 313 313 316 315 313 312 310 308 306 303 301 299 295 289 283 280 276 272 267 261 254 247 242 237 233 230 226 223 222 220 218 215 213 214 214 212 210 209 208 207 205 203 202 201 200 199 199 199 199 200
298 299 300 301 301 302 302 303 304 304 305 306 307 308 309 309 310 312 313 314 315 315 316 316 317 317 319 320 320 320 319 320 320 319 316 313 314 316 316 314 312 310 309 307 303 300 297 294 288 282 279 275 270 265 259 252 246 240 235 231 228 225 223 220 218 214 211 210 211 211 210 209 208 207 206 204 203 201 200 200 198 198 198 198 198
294 295 296 297 297 298 299 301 302 303 304 305 306 307 308 308 310 311 313 313 313 314 315 316 317 318 319 320 320 319 319 320 320 319 316 314 314 316 317 314 311 310 308 306 303 298 294 292 287 281 278 274 268 262 256 250 243 238 233 229 226 224 221 218 214 210 207 207 208 207 207 207 207 206 205 204 202 201 200 199 198 197 197 197 197
291 292 294 295 295 297 298 300 301 302 303 304 305 306 306 308 309 311 312 312 312 313 315 316 317 318 319 320 320 319 319 320 321 319 315 313 314 316 317 315 313 311 309 306 302 296 292 289 285 280 276 271 266 260 253 246 240 235 231 228 225 222 218 215 211 207 204 204 205 204 203 204 205 205 205 203 202 200 200 198 197 197 196 195 195
291 292 293 294 295 296 298 299 301 302 303 303 304 305 306 307 309 310 311 312 312 313 315 316 317 318 319 319 320 319 319 320 320 317 313 311 313 316 317 315 312 310 308 305 301 294 290 287 283 279 275 269 263 257 251 244 238 233 229 226 223 220 216 212 209 205 203 203 204 203 202 201 202 203 203 202 201 200 199 198 196 196 195 194 194
291 292 293 293 295 296 298 299 301 301 302 303 304 304 305 307 308 310 310 311 312 313 314 315 316 317 318 319 320 319 319 320 319 314 310 310 313 314 315 313 310 307 305 303 299 294 288 284 281 277 272 266 260 255 248 242 237 233 229 225 220 217 213 210 207 204 202 203 204 204 202 200 200 201 201 200 199 198 198 197 196 195 194 194 193
291 292 293 294 295 296 298 300 300 301 302 303 303 304 305 306 308 309 309 310 311 312 314 315 316 317 318 319 319 318 318 319 317 312 309 310 312 313 312 310 307 304 302 300 297 292 287 282 278 275 270 263 257 252 246 240 235 231 229 225 220 214 210 208 206 204 203 203 204 204 202 199 199 200 200 199 198 197 197 196 195 194 194 193 192
291 292 293 294 295 297 299 300 300 301 302 303 303 303 305 306 308 309 309 310 311 313 314 315 316 317 318 318 318 317 317 318 316 311 309 311 313 312 311 310 306 302 300 298 294 290 287 281 276 272 267 260 254 250 244 238 233 229 226 223 220 214 209 207 205 204 203 202 203 203 201 199 198 198 198 198 197 196 195 194 194 194 193 192 192
291 292 293 294 296 297 299 300 300 301 302 302 302 303 304 306 308 308 309 311 312 313 314 316 317 317 318 318 318 317 317 316 314 310 310 312 313 311 311 312 309 303 299 296 292 288 284 279 274 269 263 257 252 247 242 236 231 227 223 220 218 213 209 206 205 203 202 202 202 202 200 199 198 197 197 197 196 195 194 194 194 194 193 191 191
291 292 294 295 296 298 299 299 300 300 301 301 301 303 305 306 307 308 309 310 311 313 314 316 317 317 318 318 319 318 317 314 311 310 310 313 314 311 310 312 310 303 298 295 291 287 283 277 272 266 260 254 249 244 239 234 229 225 222 218 215 212 209 207 204 202 202 201 200 200 199 198 197 197 197 196 195 194 194 193 193 193 192 191 191
292 293 294 295 296 297 298 298 299 299 300 300 301 303 305 306 307 307 308 309 311 312 314 315 317 317 318 318 318 318 316 313 310 310 311 314 315 311 309 310 308 303 298 294 289 285 281 275 270 263 257 252 246 241 236 232 227 223 220 217 213 210 208 207 204 202 201 199 198 198 198 198 197 196 196 196 195 194 193 193 193 193 192 191 191
292 292 293 294 295 296 297 297 298 299 299 299 301 303 305 306 306 307 308 309 311 312 314 315 316 317 317 318 318 318 315 312 310 310 312 314 314 310 307 307 307 302 297 294 289 284 279 274 267 261 255 249 244 239 234 230 225 221 218 215 212 208 207 206 204 202 200 198 197 197 198 198 197 196 195 195 194 193 193 192 192 192 191 191 192
291 292 293 293 294 295 296 297 297 298 298 300 302 304 304 305 305 307 308 309 311 313 314 315 316 316 317 318 318 317 314 310 308 309 311 314 313 309 306 306 305 300 295 292 288 283 278 271 265 258 252 247 242 237 233 228 224 220 217 214 210 207 205 204 203 201 198 197 196 196 197 197 197 196 195 194 193 193 192 192 192 192 191 191 193
290 291 291 291 292 294 295 295 296 297 298 300 302 303 303 304 305 306 307 309 311 312 313 314 315 316 316 317 316 315 311 308 308 309 312 314 314 311 307 307 306 301 295 291 287 282 276 269 262 255 249 244 239 235 231 227 223 219 216 213 209 206 204 203 202 200 197 196 196 196 196 196 196 196 195 194 192 192 192 191 191 191 191 191 193
289 289 289 290 292 292 293 294 295 296 298 300 301 301 302 303 304 306 307 309 310 312 313 313 314 315 315 316 315 313 310 308 308 310 311 313 312 308 305 305 304 300 295 290 285 280 274 267 259 252 246 240 236 233 229 225 221 218 214 211 208 205 203 201 201 199 196 195 195 196 195 196 196 195 194 193 192 192 192 191 190 190 189 190 192
287 287 289 290 291 291 292 293 295 296 298 299 300 300 301 303 304 305 306 308 310 311 312 312 313 314 315 315 314 312 309 308 308 310 311 311 310 307 304 303 302 299 294 289 284 279 272 264 257 249 243 237 233 230 227 223 219 216 213 210 207 204 202 200 199 198 196 195 194 195 195 195 195 194 194 193 193 192 192 190 189 188 188 189 191
286 287 288 289 289 290 292 293 294 295 297 298 298 299 301 302 303 304 306 307 309 310 310 311 312 313 313 314 313 310 307 307 308 310 311 311 310 307 304 302 300 297 293 288 283 277 270 262 254 246 239 234 230 227 224 221 217 213 210 208 206 204 201 199 198 197 196 194 194 194 195 195 195 194 193 193 192 192 191 190 188 187 187 189 191
285 286 287 288 289 290 291 292 293 294 296 297 298 299 300 301 302 303 305 307 308 308 309 309 310 311 312 312 310 308 306 307 308 309 310 310 308 306 304 301 299 295 291 287 281 275 267 259 251 244 236 231 227 224 221 219 215 211 208 206 204 203 201 199 197 196 195 194 193 194 195 195 195 194 193 192 192 191 190 189 189 188 188 189 192
284 285 286 288 289 290 290 291 293 294 295 296 297 298 298 300 301 303 304 305 306 307 308 308 309 310 310 310 308 306 305 306 307 309 309 307 305 304 302 300 297 293 289 284 279 272 264 256 248 241 234 228 225 222 219 216 213 209 206 204 203 201 200 198 197 195 193 192 193 194 195 195 195 194 193 192 192 191 190 190 189 189 188 188 191
284 285 287 288 288 289 290 291 292 293 294 295 296 296 298 299 301 302 303 304 305 306 307 307 308 309 309 307 305 304 304 306 307 308 308 305 303 302 301 298 295 290 286 281 276 269 260 252 245 238 231 226 222 219 216 214 211 208 205 203 201 200 199 198 197 195 193 192 192 193 193 193 193 193 193 192 192 191 190 190 190 190 189 189 191
284 285 285 286 287 288 290 291 291 292 293 294 294 296 297 298 300 301 302 303 304 305 306 307 308 308 307 305 303 303 304 306 307 308 307 304 302 300 299 296 292 287 282 277 272 265 257 249 242 236 229 224 220 217 214 212 210 206 203 201 200 199 198 197 197 196 194 192 191 191 191 192 192 192 192 192 191 190 190 191 191 191 191 191 192
282 283 284 285 286 287 288 289 290 291 291 292 293 295 296 298 299 300 301 302 303 304 305 306 307 306 304 303 302 303 304 306 307 307 305 303 301 299 297 294 289 284 278 273 268 262 254 246 239 233 227 222 218 215 212 211 209 206 203 201 199 198 197 196 196 195 194 192 190 190 190 190 191 191 191 191 190 190 191 191 192 192 193 194 194
280 281 283 284 285 286 287 288 288 289 290 291 293 294 296 297 298 299 300 301 302 303 305 306 306 304 302 302 302 303 305 306 306 306 305 303 301 299 296 292 286 280 274 269 264 258 251 244 237 231 225 221 217 213 210 209 208 205 203 201 199 197 196 195 195 194 193 191 191 190 189 189 189 189 189 190 190 190 191 192 193 194 195 197 197
279 280 282 283 283 284 285 286 287 288 290 291 293 294 295 296 297 298 299 300 302 303 304 305 303 302 301 301 302 303 304 305 305 305 304 302 300 297 294 289 283 276 270 265 260 255 248 241 235 229 223 219 216 212 209 207 207 205 203 201 199 197 195 194 193 193 192 191 191 191 190 189 189 188 188 189 189 189 190 193 195 195 196 198 199
279 280 281 281 282 283 284 286 287 288 290 291 292 293 295 296 297 298 298 300 301 303 303 303 301 300 300 301 302 303 304 304 304 304 303 300 298 295 291 285 279 272 266 261 258 253 246 239 233 228 222 218 214 211 208 206 206 205 203 201 198 196 194 193 192 192 192 192 192 192 191 190 189 188 188 188 189 189 191 194 197 198 198 199 199
278 279 280 281 282 283 284 286 287 288 289 291 292 293 294 295 296 297 298 300 301 302 302 301 300 300 300 301 302 303 303 303 303 303 301 298 295 292 287 281 275 268 262 258 255 251 244 237 231 226 221 217 213 210 207 206 205 204 202 200 199 196 194 193 192 191 192 193 193 193 192 191 190 188 188 188 188 189 192 196 199 199 199 199 200
277 278 279 280 282 283 284 286 287 288 289 290 292 293 293 294 295 297 298 300 300 300 300 299 299 299 300 301 302 302 302 302 302 302 299 296 292 289 284 277 271 264 258 254 252 248 243 236 229 224 220 217 213 210 207 205 204 204 202 200 198 197 195 193 192 191 191 193 193 193 193 192 190 189 188 188 189 191 194 198 200 200 200 200 201
277 278 279 281 282 283 284 285 286 288 289 290 291 292 293 294 295 297 298 299 299 299 299 298 298 299 300 300 301 301 301 301 301 300 296 293 289 285 280 274 268 261 255 250 248 246 241 235 229 224 220 216 213 209 206 204 204 203 202 200 198 197 195 194 193 192 192 193 193 193 193 192 191 190 189 189 191 193 197 199 201 201 201 201 202
277 278 280 281 282 283 284 285 286 288 289 290 290 291 293 294 295 296 297 298 298 298 298 298 298 298 299 299 300 300 300 299 299 297 293 289 285 281 276 271 265 258 252 247 245 243 239 234 228 224 219 216 212 209 207 204 203 203 202 200 199 197 196 195 194 193 193 193 193 193 193 192 192 191 191 191 192 195 198 200 201 202 202 203 203
Height
10498 10494 10490 10485 10480 10475 10470 10465 10459 10454 10448 10441 10436 10429 10423 10417 10410 10403 10396 10389 10383 10377 10370 10364 10357 10350 10342 10335 10328 10320 10311 10304 10296 10289 10280 10271 10261 10251 10243 10236 10228 10220 10214 10208 10200 10193 10186 10181 10175 10168 10161 10158 10153 10147 10145 10144 10145 10145 10144 10147 10148 10149 10154 10160 10170 10167 10147 10146 10162 10166 10170 10181 10192 10207 10219 10226 10232 10242 10255 10267 10276 10287 10301 10316 10332
10486 10482 10477 10472 10467 10462 10457 10452 10446 10441 10435 10429 10423 10417 10411 10405 10398 10392 10385 10377 10371 10364 10357 10351 10344 10336 10329 10321 10313 10305 10297 10290 10283 10275 10266 10257 10247 10237 10229 10221 10213 10206 10199 10193 10186 10178 10171 10165 10160 10153 10147 10143 10138 10133 10131 10130 10130 10130 10128 10131 10134 10133 10140 10146 10151 10150 10134 10130 10146 10154 10156 10170 10183 10196 10206 10212 10218 10229 10242 10254 10262 10273 10289 10304 10318
10474 10469 10465 10459 10454 10449 10444 10439 10433 10428 10422 10416 10410 10405 10399 10393 10386 10379 10373 10365 10358 10351 10344 10337 10330 10323 10315 10307 10299 10291 10283 10275 10268 10261 10252 10244 10234 10225 10216 10205 10197 10192 10185 10179 10172 10163 10157 10152 10146 10139 10135 10130 10124 10120 10119 10117 10116 10116 10114 10116 10120 10120 10126 10132 10134 10132 10122 10119 10135 10144 10146 10160 10174 10182 10192 10199 10204 10214 10228 10240 10249 10260 10277 10291 10305
10461 10456 10451 10446 10441 10436 10431 10426 10420 10415 10409 10403 10397 10392 10387 10380 10374 10367 10360 10353 10346 10339 10331 10324 10317 10309 10301 10294 10285 10277 10268 10261 10254 10246 10238 10229 10221 10212 10203 10191 10182 10177 10171 10165 10158 10149 10144 10140 10132 10126 10122 10117 10111 10107 10106 10105 10103 10103 10102 10103 10108 10109 10113 10118 10117 10115 10111 10113 10126 10133 10136 10150 10162 10168 10179 10189 10193 10202 10216 10227 10235 10248 10265 10279 10293
10448 10443 10438 10433 10427 10423 10418 10413 10407 10402 10396 10390 10384 10380 10374 10368 10361 10355 10348 10340 10333 10326 10318 10311 10303 10295 10287 10279 10271 10262 10254 10247 10240 10233 10224 10215 10207 10199 10189 10177 10168 10162 10156 10150 10143 10134 10130 10127 10119 10113 10110 10103 10098 10094 10093 10093 10091 10091 10091 10092 10095 10098 10100 10103 10103 10101 10103 10107 10115 10121 10127 10139 10150 10157 10170 10179 10182 10191 10203 10213 10223 10237 10254 10268 10281
10434 10429 10424 10418 10413 10409 10405 10400 10395 10389 10383 10377 10372 10367 10361 10355 10348 10342 10335 10327 10320 10312 10305 10297 10290 10282 10274 10265 10257 10248 10240 10233 10226 10219 10211 10203 10195 10186 10175 10164 10155 10148 10141 10135 10127 10118 10115 10114 10106 10100 10097 10091 10085 10082 10081 10081 10080 10080 10080 10081 10084 10086 10087 10089 10090 10091 10094 10097 10103 10111 10118 10128 10139 10147 10159 10168 10171 10179 10191 10200 10212 10228 10243 10256 10269
10421 10415 10410 10404 10400 10396 10391 10387 10382 10376 10370 10364 10359 10354 10348 10341 10335 10328 10321 10313 10306 10299 10291 10284 10276 10268 10260 10251 10242 10233 10225 10218 10212 10205 10198 10190 10183 10174 10162 10151 10142 10134 10128 10121 10113 10103 10098 10098 10094 10088 10085 10079 10074 10071 10069 10069 10069 10069 10070 10071 10073 10074 10075 10077 10079 10081 10084 10088 10094 10102 10108 10117 10128 10136 10147 10156 10161 10169 10180 10189 10202 10216 10229 10242 10256
10407 10401 10396 10390 10386 10382 10378 10373 10368 10363 10358 10352 10347 10341 10335 10328 10321 10314 10307 10299 10292 10285 10278 10271 10263 10255 10246 10237 10228 10219 10210 10204 10197 10190 10185 10178 10172 10163 10151 10139 10130 10121 10115 10109 10102 10093 10085 10081 10080 10077 10073 10067 10063 10060 10058 10058 10059 10058 10059 10061 10062 10063 10064 10066 10068 10070 10074 10078 10084 10090 10097 10106 10116 10124 10135 10145 10152 10160 10168 10177 10190 10203 10214 10228 10242
10392 10387 10382 10377 10372 10368 10364 10360 10355 10350 10345 10339 10334 10328 10321 10314 10307 10299 10293 10286 10279 10272 10265 10258 10250 10242 10233 10223 10214 10204 10195 10189 10183 10176 10171 10167 10161 10152 10140 10128 10118 10108 10101 10096 10092 10084 10075 10070 10068 10065 10061 10056 10051 10049 10047 10047 10048 10048 10049 10051 10051 10052 10053 10055 10057 10060 10064 10069 10073 10080 10087 10096 10105 10114 10126 10136 10142 10148 10155 10165 10180 10191 10201 10215 10230
10377 10372 10368 10363 10358 10354 10350 10346 10341 10336 10331 10326 10320 10314 10307 10300 10293 10285 10279 10272 10266 10259 10251 10244 10236 10228 10220 10210 10200 10190 10181 10175 10170 10162 10157 10153 10148 10141 10130 10118 10108 10096 10086 10082 10081 10073 10064 10059 10057 10053 10050 10045 10041 10039 10037 10036 10038 10038 10039 10040 10041 10041 10043 10045 10047 10050 10055 10059 10064 10071 10079 10087 10095 10104 10115 10124 10128 10135 10145 10157 10170 10179 10190 10205 10220
10363 10358 10353 10348 10344 10341 10336 10332 10328 10322 10318 10312 10307 10300 10293 10286 10279 10272 10265 10259 10253 10246 10238 10230 10222 10214 10207 10197 10187 10177 10168 10161 10156 10149 10143 10137 10133 10128 10119 10108 10099 10086 10072 10068 10069 10063 10053 10048 10046 10042 10038 10035 10032 10029 10027 10026 10027 10028 10028 10029 10030 10031 10032 10034 10037 10040 10046 10050 10055 10063 10071 10076 10083 10093 10103 10110 10115 10125 10136 10147 10157 10167 10180 10197 10212
10348 10343 10339 10335 10331 10327 10323 10319 10314 10309 10304 10299 10292 10286 10279 10273 10266 10259 10253 10247 10240 10233 10225 10216 10208 10201 10193 10185 10174 10164 10155 10148 10142 10136 10129 10123 10117 10113 10106 10097 10088 10075 10060 10055 10057 10051 10043 10038 10034 10030 10026 10024 10022 10020 10018 10016 10016 10018 10018 10018 10019 10021 10022 10024 10027 10031 10036 10040 10046 10055 10061 10066 10073 10082 10092 10099 10106 10116 10126 10135 10145 10156 10171 10188 10203
10334 10329 10325 10321 10317 10314 10310 10306 10301 10295 10290 10284 10278 10272 10266 10260 10253 10246 10241 10235 10228 10221 10211 10202 10195 10187 10180 10172 10163 10152 10143 10135 10129 10122 10115 10109 10103 10098 10093 10084 10075 10062 10048 10044 10044 10039 10033 10029 10024 10019 10015 10012 10011 10011 10009 10006 10006 10007 10008 10008 10009 10011 10013 10015 10019 10022 10027 10032 10038 10046 10051 10056 10063 10071 10080 10088 10096 10105 10115 10124 10134 10148 10164 10180 10195
10319 10315 10312 10308 10304 10300 10296 10292 10287 10281 10276 10270 10264 10259 10253 10247 10241 10234 10228 10222 10215 10207 10198 10189 10182 10175 10167 10160 10151 10141 10131 10123 10116 10109 10102 10096 10089 10085 10081 10073 10063 10050 10036 10032 10032 10027 10022 10020 10014 10008 10004 10001 10001 10002 10000 9998 9996 9997 9998 9998 10000 10002 10004 10007 10010 10014 10018 10023 10030 10036 10041 10045 10053 10061 10069 10078 10087 10095 10104 10113 10125 10142 10160 10175 10188
10305 10301 10298 10294 10290 10286 10281 10277 10271 10266 10261 10256 10250 10246 10240 10234 10228 10221 10215 10208 10201 10194 10186 10179 10172 10164 10155 10148 10140 10130 10119 10111 10104 10096 10088 10083 10077 10072 10069 10062 10053 10040 10026 10021 10020 10016 10012 10010 10005 9999 9994 9990 9991 9993 9992 9989 9988 9988 9989 9990 9991 9994 9996 9998 10002 10006 10010 10015 10021 10027 10032 10037 10045 10052 10061 10070 10077 10086 10096 10107 10121 10138 10155 10168 10181
10290 10286 10283 10278 10274 10270 10265 10261 10256 10252 10247 10242 10237 10232 10227 10221 10216 10209 10202 10195 10189 10184 10177 10169 10162 10153 10144 10136 10129 10119 10108 10098 10091 10082 10074 10068 10064 10061 10058 10053 10044 10031 10017 10011 10009 10005 10002 10001 9996 9990 9984 9980 9982 9984 9983 9981 9979 9979 9981 9983 9984 9986 9988 9990 9995 9999 10003 10007 10013 10020 10026 10031 10037 10045 10054 10062 10070 10080 10092 10105 10118 10133 10147 10160 10174
10274 10271 10267 10263 10259 10255 10251 10246 10243 10239 10234 10229 10224 10219 10214 10209 10203 10196 10189 10183 10178 10173 10167 10158 10150 10142 10134 10126 10119 10110 10098 10088 10079 10070 10061 10055 10052 10051 10049 10044 10034 10022 10009 10001 9998 9996 9993 9991 9987 9982 9975 9972 9973 9975 9974 9973 9971 9971 9974 9975 9976 9978 9980 9983 9988 9992 9995 10000 10007 10014 10020 10026 10031 10040 10049 10057 10066 10077 10088 10100 10112 10125 10139 10153 10166
10261 10257 10253 10249 10245 10241 10237 10234 10231 10227 10222 10216 10212 10206 10201 10195 10189 10183 10178 10173 10168 10163 10156 10147 10138 10131 10123 10116 10109 10100 10089 10078 10068 10059 10050 10042 10039 10039 10038 10034 10025 10013 10001 9992 9988 9986 9984 9981 9978 9974 9967 9963 9964 9966 9965 9965 9964 9964 9966 9967 9968 9969 9971 9975 9980 9984 9988 9994 10001 10008 10014 10019 10026 10035 10044 10052 10062 10073 10084 10094 10105 10118 10132 10146 10160
10248 10244 10240 10237 10232 10228 10225 10222 10218 10214 10208 10204 10198 10193 10188 10182 10176 10172 10167 10163 10159 10153 10146 10138 10129 10121 10114 10106 10098 10089 10079 10069 10058 10048 10039 10030 10027 10028 10027 10023 10016 10005 9994 9984 9978 9977 9975 9971 9969 9966 9959 9956 9956 9957 9957 9956 9956 9957 9958 9959 9959 9960 9964 9969 9974 9977 9982 9988 9995 10002 10007 10012 10021 10031 10038 10046 10057 10069 10079 10088 10100 10113 10127 10141 10153
10235 10231 10227 10223 10219 10216 10212 10208 10205 10200 10194 10190 10185 10179 10175 10170 10165 10161 10157 10152 10148 10142 10135 10128 10120 10112 10105 10097 10088 10078 10069 10060 10049 10038 10028 10019 10016 10017 10015 10011 10006 9997 9986 9976 9969 9968 9966 9962 9960 9958 9952 9948 9949 9949 9949 9949 9949 9949 9950 9950 9951 9955 9960 9965 9967 9971 9977 9983 9990 9997 10002 10007 10017 10026 10033 10042 10053 10063 10073 10083 10096 10109 10122 10135 10146
10222 10218 10214 10210 10206 10203 10199 10195 10191 10186 10180 10177 10173 10168 10164 10159 10154 10149 10145 10141 10136 10131 10124 10118 10110 10103 10095 10087 10078 10068 10058 10049 10039 10029 10018 10009 10005 10004 10003 9999 9994 9988 9980 9969 9961 9959 9958 9954 9951 9949 9945 9942 9942 9942 9942 9942 9942 9942 9942 9943 9947 9952 9957 9959 9961 9966 9973 9979 9985 9992 9998 10006 10015 10023 10030 10039 10049 10058 10068 10079 10092 10103 10115 10128 10139
10209 10205 10200 10197 10193 10189 10185 10182 10177 10173 10169 10166 10162 10158 10153 10147 10143 10138 10134 10130 10124 10119 10114 10108 10101 10094 10086 10077 10068 10057 10046 10037 10028 10019 10009 10000 9994 9991 9989 9986 9983 9978 9972 9963 9954 9949 9949 9947 9943 9941 9938 9936 9936 9935 9935 9935 9935 9935 9936 9939 9943 9947 9949 9952 9956 9962 9969 9975 9980 9986 9994 10003 10012 10020 10027 10035 10043 10053 10063 10074 10086 10097 10110 10121 10132
10195 10191 10187 10183 10180 10175 10172 10169 10165 10162 10158 10154 10149 10145 10140 10135 10132 10127 10124 10119 10114 10109 10104 10098 10092 10085 10076 10067 10057 10047 10036 10027 10018 10008 10000 9992 9985 9979 9976 9973 9971 9968 9963 9957 9949 9942 9939 9939 9937 9933 9931 9930 9929 9928 9928 9928 9929 9930 9932 9934 9937 9940 9943 9946 9952 9958 9965 9970 9975 9982 9991 10000 10008 10015 10022 10029 10038 10047 10057 10068 10079 10091 10103 10115 10127
10181 10178 10174 10171 10167 10163 10160 10158 10154 10151 10146 10141 10137 10132 10128 10124 10120 10116 10112 10108 10103 10099 10094 10089 10083 10076 10068 10059 10049 10038 10028 10019 10009 9998 9990 9984 9977 9971 9966 9962 9959 9957 9954 9949 9944 9937 9932 9931 9930 9926 9924 9923 9922 9922 9922 9922 9924 9926 9927 9929 9932 9935 9938 9942 9948 9954 9960 9965 9970 9978 9988 9996 10003 10010 10017 10023 10032 10041 10050 10061 10073 10085 10097 10110 10124
10170 10167 10164 10161 10156 10152 10150 10146 10143 10139 10134 10129 10124 10120 10116 10112 10107 10103 10100 10097 10093 10089 10084 10079 10073 10066 10059 10051 10041 10030 10021 10012 10001 9990 9982 9976 9969 9963 9958 9952 9948 9946 9945 9941 9937 9931 9925 9924 9922 9920 9918 9917 9916 9915 9916 9917 9919 9921 9922 9924 9926 9929 9933 9938 9943 9949 9954 9959 9965 9973 9982 9990 9997 10004 10010 10017 10026 10037 10047 10059 10070 10081 10093 10106 10120
10159 10156 10153 10149 10144 10141 10138 10135 10131 10127 10122 10116 10112 10108 10103 10100 10095 10091 10088 10085 10081 10077 10073 10068 10062 10056 10050 10042 10033 10022 10011 10003 9995 9984 9975 9969 9963 9957 9951 9945 9938 9934 9933 9932 9929 9924 9919 9917 9916 9913 9912 9911 9910 9909 9910 9912 9914 9915 9916 9918 9921 9925 9929 9933 9938 9943 9948 9953 9959 9966 9974 9981 9989 9997 10005 10014 10025 10035 10045 10056 10066 10077 10090 10104 10117
10148 10144 10140 10135 10131 10128 10126 10123 10119 10114 10109 10104 10099 10095 10090 10087 10083 10080 10076 10072 10069 10065 10060 10056 10051 10046 10040 10033 10023 10012 10002 9995 9988 9979 9969 9963 9957 9951 9946 9940 9933 9927 9923 9922 9921 9918 9914 9911 9909 9907 9906 9905 9904 9904 9905 9907 9908 9909 9911 9913 9916 9920 9924 9929 9934 9938 9943 9947 9953 9959 9966 9973 9981 9991 10002 10013 10023 10032 10042 10052 10062 10074 10087 10100 10113
10135 10131 10126 10122 10118 10116 10113 10110 10106 10102 10097 10092 10087 10081 10077 10074 10071 10068 10064 10061 10057 10054 10049 10045 10040 10035 10030 10024 10015 10005 9994 9985 9979 9971 9963 9958 9953 9948 9942 9936 9930 9923 9917 9914 9912 9910 9908 9905 9902 9901 9901 9899 9898 9899 9900 9902 9904 9905 9906 9907 9910 9914 9920 9925 9929 9934 9938 9942 9947 9954 9961 9969 9978 9988 9999 10009 10019 10028 10038 10049 10060 10071 10083 10095 10108
10121 10117 10112 10108 10105 10102 10100 10097 10094 10089 10084 10079 10074 10068 10063 10060 10058 10057 10054 10050 10046 10043 10039 10035 10030 10025 10019 10013 10007 9998 9988 9979 9971 9962 9954 9950 9947 9942 9937 9931 9924 9918 9912 9907 9904 9902 9902 9899 9897 9895 9895 9894 9893 9893 9894 9897 9899 9900 9901 9903 9906 9910 9914 9920 9925 9929 9933 9938 9944 9952 9960 9969 9977 9987 9996 10006 10016 10025 10035 10046 10056 10067 10078 10091 10104
10107 10102 10099 10095 10092 10090 10088 10084 10080 10075 10071 10066 10061 10056 10051 10046 10043 10041 10039 10037 10034 10030 10027 10023 10018 10013 10008 10002 9995 9987 9977 9969 9962 9953 9945 9940 9937 9933 9928 9922 9916 9911 9907 9902 9897 9896 9895 9893 9891 9890 9889 9888 9888 9888 9890 9892 9894 9894 9896 9899 9902 9906 9910 9915 9920 9924 9929 9935 9942 9950 9959 9967 9975 9985 9993 10002 10011 10020 10030 10041 10051 10061 10074 10087 10100
10093 10088 10085 10081 10078 10076 10074 10070 10066 10062 10058 10054 10049 10044 10040 10036 10031 10027 10023 10020 10017 10015 10012 10009 10005 10001 9996 9990 9984 9975 9965 9956 9950 9943 9936 9931 9927 9923 9919 9913 9907 9902 9900 9896 9891 9889 9889 9887 9885 9885 9884 9883 9883 9883 9885 9887 9889 9890 9891 9893 9898 9903 9907 9911 9915 9921 9926 9933 9940 9948 9957 9965 9972 9981 9990 9997 10006 10016 10026 10036 10046 10057 10071 10084 10096
10079 10075 10072 10068 10064 10061 10059 10056 10052 10048 10045 10040 10035 10031 10028 10025 10021 10017 10012 10007 10004 10000 9997 9995 9992 9988 9983 9978 9973 9966 9957 9947 9940 9934 9928 9922 9917 9912 9910 9907 9900 9893 9891 9889 9885 9883 9882 9881 9879 9879 9878 9878 9878 9878 9880 9882 9884 9885 9887 9889 9893 9898 9903 9907 9912 9918 9924 9931 9938 9946 9954 9961 9969 9978 9985 9993 10002 10012 10022 10031 10042 10054 10068 10080 10093
10066 10063 10059 10055 10051 10047 10045 10042 10039 10036 10032 10027 10022 10019 10015 10011 10008 10005 10001 9998 9995 9991 9987 9982 9978 9975 9971 9966 9961 9955 9947 9938 9931 9925 9920 9914 9908 9902 9900 9899 9895 9887 9882 9881 9879 9877 9876 9875 9874 9873 9873 9872 9873 9874 9875 9877 9879 9881 9883 9885 9889 9893 9899 9904 9910 9915 9920 9928 9936 9944 9951 9958 9965 9973 9981 9990 9999 10009 10018 10028 10039 10051 10063 10076 10088
10055 10051 10047 10043 10039 10036 10032 10029 10027 10023 10019 10014 10010 10006 10002 9998 9994 9990 9987 9984 9981 9979 9976 9972 9967 9962 9958 9953 9948 9943 9935 9927 9921 9916 9913 9908 9901 9894 9890 9890 9888 9882 9876 9873 9872 9871 9870 9869 9868 9868 9868 9867 9868 9869 9870 9872 9874 9876 9879 9881 9885 9890 9895 9901 9907 9913 9918 9926 9933 9940 9947 9955 9962 9970 9978 9987 9997 10006 10015 10025 10036 10047 10060 10072 10083
10043 10040 10036 10032 10028 10024 10021 10017 10014 10010 10006 10001 9998 9994 9990 9986 9982 9978 9973 9969 9965 9962 9960 9959 9956 9952 9947 9942 9937 9932 9925 9917 9910 9907 9906 9902 9894 9886 9881 9880 9879 9875 9870 9867 9865 9864 9864 9863 9862 9862 9862 9863 9863 9865 9866 9868 9870 9872 9875 9878 9881 9886 9892 9898 9904 9909 9916 9923 9929 9936 9943 9951 9960 9969 9976 9985 9994 10003 10013 10023 10033 10044 10057 10069 10080
10032 10028 10024 10021 10017 10013 10010 10006 10002 9997 9993 9990 9987 9983 9979 9975 9971 9967 9962 9957 9953 9949 9945 9942 9942 9940 9937 9934 9929 9923 9916 9909 9901 9896 9895 9893 9887 9879 9872 9870 9869 9866 9863 9860 9858 9857 9857 9857 9857 9857 9857 9857 9859 9860 9862 9864 9866 9869 9872 9875 9878 9883 9888 9894 9900 9906 9912 9919 9926 9932 9939 9948 9957 9967 9975 9983 9992 10001 10010 10020 10031 10042 10055 10067 10078
10020 10016 10012 10009 10006 10003 9998 9994 9990 9986 9982 9979 9975 9972 9968 9964 9960 9956 9952 9947 9943 9939 9934 9929 9926 9925 9923 9921 9918 9912 9904 9897 9892 9887 9885 9883 9880 9874 9867 9863 9861 9859 9856 9853 9852 9851 9851 9851 9851 9851 9852 9852 9854 9855 9857 9860 9862 9865 9868 9872 9875 9880 9885 9890 9896 9902 9908 9915 9923 9930 9937 9945 9954 9963 9972 9981 9990 9999 10007 10018 10029 10041 10053 10065 10076
10006 10003 10001 9998 9995 9991 9987 9982 9978 9974 9970 9967 9964 9960 9956 9953 9949 9945 9942 9938 9934 9929 9924 9919 9915 9912 9909 9907 9906 9902 9895 9887 9882 9878 9874 9872 9870 9866 9861 9857 9854 9851 9849 9847 9845 9845 9845 9845 9846 9846 9846 9847 9849 9850 9853 9856 9859 9862 9865 9869 9873 9877 9882 9886 9892 9898 9904 9911 9919 9927 9935 9943 9951 9960 9969 9978 9987 9996 10005 10015 10026 10038 10050 10061 10072
9994 9991 9988 9985 9982 9979 9975 9971 9966 9962 9959 9956 9952 9948 9945 9942 9939 9935 9932 9928 9925 9921 9916 9911 9907 9903 9899 9896 9894 9892 9887 9881 9875 9869 9865 9861 9859 9857 9854 9850 9847 9844 9842 9840 9839 9839 9839 9840 9840 9841 9841 9842 9844 9846 9848 9852 9855 9858 9862 9866 9870 9875 9879 9883 9888 9894 9900 9908 9916 9924 9932 9940 9949 9957 9966 9975 9984 9994 10004 10014 10024 10035 10046 10058 10068
9982 9978 9975 9973 9970 9966 9963 9959 9955 9951 9948 9944 9940 9937 9934 9930 9928 9925 9922 9919 9915 9912 9907 9903 9898 9894 9890 9886 9883 9880 9878 9874 9870 9864 9858 9853 9850 9849 9846 9843 9840 9837 9835 9834 9833 9833 9833 9834 9834 9835 9836 9837 9839 9841 9844 9847 9851 9855 9859 9863 9867 9872 9877 9881 9885 9890 9896 9904 9912 9920 9928 9937 9945 9954 9963 9972 9981 9990 10000 10011 10021 10030 10041 10054 10066
9968 9965 9963 9961 9958 9954 9951 9947 9943 9940 9936 9932 9928 9926 9922 9919 9917 9914 9911 9909 9905 9902 9898 9893 9889 9884 9880 9876 9872 9869 9867 9865 9862 9859 9853 9847 9843 9840 9839 9836 9834 9831 9828 9827 9827 9827 9827 9828 9829 9830 9831 9833 9834 9837 9840 9843 9847 9851 9855 9859 9864 9869 9874 9879 9883 9887 9893 9899 9907 9915 9924 9934 9943 9952 9961 9970 9978 9987 9997 10007 10016 10026 10037 10049 10061
9955 9953 9951 9948 9944 9941 9938 9934 9932 9928 9924 9920 9917 9914 9911 9908 9906 9903 9900 9898 9894 9891 9887 9883 9878 9875 9870 9865 9860 9857 9856 9854 9853 9850 9846 9840 9836 9833 9831 9829 9827 9825 9822 9820 9820 9821 9821 9822 9823 9824 9826 9828 9830 9832 9835 9838 9842 9846 9850 9855 9860 9865 9870 9876 9881 9885 9890 9896 9903 9912 9922 9932 9941 9950 9958 9967 9975 9985 9994 10003 10014 10024 10034 10044 10054
9944 9942 9938 9935 9931 9928 9925 9923 9920 9916 9912 9909 9906 9902 9900 9897 9894 9892 9889 9886 9882 9880 9876 9872 9868 9864 9859 9854 9850 9846 9845 9843 9842 9840 9837 9832 9828 9825 9824 9822 9820 9818 9815 9814 9814 9814 9815 9817 9817 9819 9821 9823 9825 9828 9831 9834 9837 9842 9846 9850 9856 9861 9866 9872 9878 9883 9888 9894 9900 9910 9919 9929 9939 9947 9955 9964 9973 9982 9991 10001 10011 10022 10031 10039 10047
9933 9929 9926 9923 9920 9917 9914 9911 9908 9904 9901 9897 9894 9891 9889 9886 9883 9880 9877 9874 9871 9868 9865 9861 9858 9853 9848 9843 9839 9836 9835 9833 9831 9830 9827 9823 9820 9817 9816 9814 9813 9811 9809 9808 9807 9808 9809 9811 9812 9813 9815 9817 9820 9823 9826 9829 9833 9837 9841 9846 9851 9857 9862 9868 9874 9881 9887 9893 9899 9907 9916 9926 9935 9943 9952 9962 9971 9980 9989 9998 10008 10018 10027 10035 10042
9920 9917 9914 9911 9908 9906 9903 9899 9896 9892 9889 9886 9883 9880 9877 9874 9871 9869 9865 9862 9859 9856 9853 9851 9847 9842 9837 9833 9829 9826 9825 9823 9821 9819 9817 9813 9811 9809 9808 9806 9805 9804 9803 9801 9801 9802 9804 9805 9806 9808 9810 9812 9815 9818 9822 9825 9829 9833 9837 9841 9847 9852 9858 9864 9871 9878 9884 9891 9898 9905 9913 9922 9931 9939 9948 9958 9967 9976 9986 9995 10004 10013 10022 10029 10037
9907 9905 9902 9899 9897 9894 9891 9887 9884 9880 9878 9875 9872 9869 9866 9863 9860 9857 9853 9850 9848 9845 9842 9840 9836 9831 9827 9823 9820 9817 9815 9813 9811 9810 9807 9804 9802 9801 9800 9798 9798 9797 9796 9795 9795 9796 9798 9799 9801 9803 9805 9807 9810 9813 9817 9820 9824 9828 9833 9837 9842 9848 9855 9861 9867 9874 9881 9888 9896 9903 9910 9918 9927 9935 9944 9953 9962 9972 9982 9990 9998 10006 10014 10023 10031
9894 9892 9889 9887 9884 9881 9879 9876 9872 9869 9866 9863 9860 9857 9854 9851 9848 9845 9841 9839 9837 9834 9831 9828 9824 9820 9817 9814 9811 9808 9806 9803 9802 9801 9798 9795 9794 9792 9791 9791 9790 9790 9790 9789 9788 9790 9792 9794 9795 9797 9800 9802 9805 9808 9812 9816 9820 9824 9829 9833 9838 9844 9850 9857 9863 9871 9878 9885 9893 9900 9907 9915 9923 9931 9940 9949 9958 9968 9977 9985 9992 10000 10008 10016 10025
9881 9878 9876 9873 9871 9869 9867 9864 9860 9857 9854 9851 9848 9845 9842 9839 9836 9833 9830 9828 9826 9823 9820 9816 9813 9810 9807 9805 9802 9799 9796 9794 9793 9791 9789 9787 9786 9784 9784 9783 9783 9783 9783 9782 9782 9783 9785 9787 9790 9792 9794 9797 9800 9803 9807 9811 9815 9819 9824 9829 9834 9839 9845 9852 9859 9867 9874 9881 9889 9897 9904 9912 9919 9927 9936 9946 9955 9964 9972 9979 9986 9994 10002 10011 10019
9867 9864 9862 9860 9858 9857 9855 9851 9848 9845 9842 9839 9836 9833 9830 9827 9824 9821 9819 9817 9815 9812 9808 9805 9802 9799 9797 9795 9793 9790 9788 9785 9784 9782 9781 9779 9778 9777 9776 9776 9775 9776 9776 9776 9776 9777 9779 9781 9784 9786 9788 9791 9795 9798 9802 9806 9810 9815 9820 9825 9830 9835 9841 9847 9854 9862 9869 9877 9885 9893 9900 9908 9915 9923 9931 9941 9951 9959 9967 9973 9980 9988 9997 10005 10013
9853 9851 9849 9848 9846 9844 9842 9839 9835 9832 9830 9827 9824 9821 9818 9815 9813 9810 9808 9806 9803 9800 9797 9794 9792 9789 9787 9785 9783 9781 9779 9777 9775 9774 9772 9771 9770 9769 9769 9768 9768 9768 9769 9769 9769 9770 9772 9774 9778 9780 9783 9786 9789 9793 9797 9801 9805 9810 9815 9820 9825 9831 9837 9843 9850 9857 9864 9872 9880 9888 9896 9904 9912 9919 9927 9935 9944 9953 9961 9969 9976 9984 9992 10000 10008
9840 9838 9837 9835 9834 9832 9829 9826 9823 9821 9818 9815 9812 9809 9807 9804 9801 9799 9797 9794 9792 9789 9787 9784 9781 9779 9777 9775 9773 9771 9769 9768 9767 9766 9764 9763 9763 9762 9761 9760 9760 9761 9762 9762 9763 9764 9765 9767 9771 9774 9777 9780 9784 9787 9792 9796 9800 9805 9810 9815 9821 9827 9832 9838 9845 9852 9859 9866 9874 9882 9890 9899 9907 9915 9923 9931 9939 9947 9955 9963 9972 9980 9987 9995 10004